Location: Aytr�
(46.1357°N, 1.1145°W)
Time: 18:30:04
(UTC+00:00)

Cosmos 1500 - Pass Details

Date: 03 March 2021
Orbit: 499 x 517 km, 82.5° (Epoch: 14 April)

Event Time Altitude Azimuth Distance (km) Brightness Sun altitude
Rises 18:46:54 0° 172° (S) 2,579 6.7 -10.0°
Reaches altitude 10° 18:49:03 10° 166° (SSE) 1,700 5.7 -10.4°
Maximum altitude 18:52:36 44° 94° (E) 707 3.4 -11.0°
Drops below altitude 10° 18:56:10 10° 22° (NNE) 1,714 5.6 -11.6°
Sets 18:58:22 0° 15° (NNE) 2,605 6.6 -12.0°
